Погода в Мостовском

Россия / Красноярский край     56°45′36″N   92°45′02″E
темп.,
°C
ветер,
м/с
пор.,
м/с
влажн.,
%
обл.,
%
осадки,
мм/ч
давл.,
гПа
погр.,
м
9 декабря, чт
чт901:00−19зюз31094100 0.0 1035361
04:00−17зюз31093100 0.1 1035564
07:00−17зюз41090100 0.1 1035656
10:00−18з41190100 0.1 1037639
13:00−17зюз51288100 0.1 1038692
16:00−17зюз51490100 0.1 1038781
19:00−16зюз61587100 0.2 1037831
22:00−15зюз71789100 0.1 1036828
10 декабря, пт
пт1001:00−15зюз81889100 0.4 1035852
04:00−15зюз81986100 0.2 1035816
07:00−14зюз81985100 0.3 1034900
10:00−14зюз81886100 0.1 1035881
13:00−14з71687100 0.3 1035809
16:00−14з61490100 0.3 1037781
19:00−15з51290100 0.4 1039677
22:00−15зюз51290100 0.1 1040594
11 декабря, сб
сб1101:00−15зюз41291100 0.2 1040503
04:00−15зюз3119282 0.1 1040418
07:00−12юз41193100 0.1 1039536
10:00−10юз41292100 0.6 1037647
13:00−8юз41384100 0.6 1034673
16:00−7юз41381100 0.0 1032596
19:00−7ююз41485100 0.0 1029449
22:00−6ююз41483100 0.0 1026417
12 декабря, вс
вс1201:00−5юз51691100 0.1 1022806
04:00−5зюз61686100 0.4 10191109
07:00−6зюз51388100 1.0 10181076
10:00−8з41184100 0.0 1018785
13:00−9з4989100 0.1 1018804
16:00−10з3890100 0.1 1018641
19:00−12з3991100 0.1 1019560
22:00−13з3992100 0.1 1020704
13 декабря, пн
пн1301:00−15з3892100 0.3 1022660
04:00−16з3892100 0.1 1024641
07:00−17з3892100 0.2 1026605
10:00−19з379597 0.1 1028406
13:00−18з3689100 0.1 1029519
16:00−18зюз269395 0.1 1029404
19:00−18юз2894100 0.1 1029549
22:00−17юз279597 0.1 1028550